Dewpoint
62 62 61 59 59 59 58 59 59 59 59 58 58 58 58 58 57 30 30 47 51 61 56 28 28 29 31 33 34 35 29 25 25 25 26 29 28 30 34 28 32 35 36 38 40
62 62 61 60 59 58 58 58 58 58 57 57 57 58 57 57 25 25 49 55 56 57 33 28 26 26 27 28 30 31 28 26 25 26 26 29 29 28 28 29 31 34 38 39 40
62 61 61 60 59 58 58 58 58 57 57 56 56 57 56 53 25 23 54 54 55 50 35 30 27 27 28 27 27 29 28 27 27 28 28 28 30 31 28 29 34 35 37 39 39
62 62 61 60 59 57 58 58 57 57 56 55 56 55 56 39 17 27 52 52 52 40 32 27 24 24 25 24 25 27 27 28 31 34 31 29 33 31 33 35 36 37 38 39 39
62 62 61 60 59 57 57 57 55 56 55 55 54 54 44 19 22 29 52 48 35 35 32 27 21 23 21 22 24 25 28 30 33 35 34 34 33 31 32 34 35 36 37 39 39
62 62 61 60 59 58 57 56 55 56 56 55 54 55 32 18 30 29 33 36 37 34 33 30 26 25 23 24 24 25 28 31 34 35 34 31 29 31 32 32 34 34 37 39 39
61 61 61 60 58 57 55 53 53 55 55 55 56 36 24 26 30 30 32 35 39 39 34 37 34 26 25 25 28 28 28 30 32 32 31 31 28 29 32 31 32 34 37 39 39
60 60 60 60 58 56 54 52 54 54 55 55 55 31 23 30 30 28 30 31 36 38 38 37 30 25 26 26 25 24 25 22 29 32 32 32 24 28 30 28 30 34 36 37 38
59 59 59 59 57 55 54 52 51 50 52 51 36 25 19 36 27 29 30 32 32 34 32 21 26 23 22 18 18 20 11 11 14 28 29 30 24 30 30 27 27 33 35 36 36
58 58 58 58 57 54 52 49 49 44 39 26 21 24 23 24 29 30 28 32 30 30 31 26 22 20 17 16 12 12 11 12 13 20 26 25 26 27 30 27 28 32 33 32 34
58 57 57 58 57 54 48 39 32 29 30 28 26 22 24 28 32 28 29 27 26 22 19 22 23 17 15 16 14 14 14 14 15 19 21 20 20 20 28 28 27 31 32 30 32
57 57 57 58 56 52 43 36 40 41 24 30 28 25 27 30 22 24 28 23 21 19 22 21 19 16 18 17 14 15 15 15 17 19 20 19 19 21 24 28 27 30 32 28 28
57 56 57 57 54 47 41 42 45 43 27 23 24 25 25 28 22 22 25 24 21 19 19 19 17 15 15 15 13 16 14 15 16 19 19 20 19 24 26 26 24 26 27 27 26
57 56 57 55 50 43 42 43 45 44 27 24 24 26 23 26 23 23 25 27 21 18 18 18 18 14 17 14 13 16 16 17 18 19 16 20 14 22 26 25 22 22 23 27 25
56 57 56 51 45 43 43 44 46 45 35 25 25 27 24 21 22 23 25 23 19 17 21 18 17 18 17 12 14 15 17 19 21 21 21 20 20 20 23 23 24 22 20 21 20
56 56 54 49 46 44 45 46 45 35 35 26 28 26 24 23 21 24 21 21 19 18 20 17 20 20 16 15 16 17 20 22 23 24 24 18 18 19 20 21 22 24 18 19 17
56 54 48 43 43 44 46 45 39 35 26 26 28 26 20 25 23 26 20 18 19 27 29 24 18 18 16 17 20 20 22 26 24 25 19 19 19 19 23 23 23 24 18 17 17
55 53 48 42 44 44 46 38 34 26 30 26 26 24 22 24 24 29 23 19 18 18 26 25 27 17 16 16 17 18 19 20 16 17 18 18 17 23 25 22 21 21 19 19 18
54 52 50 48 45 46 41 38 32 29 27 28 28 26 28 26 25 29 20 18 18 18 25 20 25 17 15 16 17 18 19 18 17 19 16 18 18 22 24 23 21 19 20 20 18
51 49 49 48 44 46 38 32 27 24 26 25 28 25 26 25 28 29 23 17 19 19 18 19 23 18 16 18 19 18 17 18 23 18 16 18 18 22 23 24 24 22 21 21 20
51 45 50 45 46 42 37 31 26 24 25 27 28 27 25 24 27 28 25 18 19 21 18 20 20 23 22 20 18 20 18 16 18 19 17 16 18 23 23 25 25 24 23 22 20
50 41 50 47 41 39 34 29 31 26 26 26 25 25 23 25 28 28 26 23 19 20 26 21 27 25 25 23 16 16 15 15 19 19 19 19 19 21 22 24 27 26 26 23 21
45 44 49 47 37 36 36 31 28 28 28 28 29 24 23 25 29 28 30 25 22 21 27 27 28 27 25 18 17 18 17 15 18 19 18 17 18 22 23 25 25 25 25 25 22
45 41 43 41 37 36 35 34 33 28 26 26 26 23 24 27 29 30 29 31 24 23 34 32 30 29 26 26 29 28 28 26 22 21 20 19 19 21 22 23 23 22 23 24 22
45 43 41 38 38 36 37 34 32 33 31 28 28 26 27 30 32 32 32 30 32 32 28 29 27 29 28 28 28 28 28 28 27 27 23 23 22 22 23 23 21 24 26 25 22
45 41 40 39 37 38 37 36 34 34 33 34 31 31 28 28 32 32 33 33 33 31 29 23 28 26 26 29 29 27 27 27 25 25 24 24 23 24 23 24 25 25 24 23 22
43 41 43 39 37 37 37 36 35 35 37 35 33 32 34 35 36 36 37 37 36 34 29 23 25 27 27 27 26 24 25 25 25 25 23 22 23 25 24 26 25 21 21 21 21
Lifted_Index
7 7 8 8 9 9 9 9 9 9 9 9 9 9 9 10 12 12 11 10 9 8 10 11 11 10 10 9 9 8 6 6 7 7 8 8 8 8 8 8 8 8 8 9 9
7 7 8 8 8 9 9 9 9 9 9 9 9 9 10 11 12 12 11 10 9 9 11 11 11 10 10 10 9 8 7 7 8 8 8 9 9 9 8 8 8 8 9 9 9
7 7 8 8 8 9 9 9 9 10 10 10 10 10 10 11 12 13 12 11 10 11 12 12 12 11 10 10 9 9 8 8 9 9 9 9 9 9 9 8 9 9 9 10 10
7 7 8 8 9 9 10 10 10 10 11 11 11 11 11 11 12 13 13 12 12 12 12 12 12 11 10 10 10 9 9 9 9 9 9 9 9 9 9 9 10 10 10 10 10
7 7 8 8 9 10 10 11 11 11 11 11 11 11 11 12 12 13 14 13 12 12 12 12 12 11 11 11 10 10 9 9 9 9 8 8 9 9 9 9 9 9 10 10 9
6 7 8 9 10 10 10 11 12 11 11 11 11 12 12 12 13 14 14 13 13 12 12 12 12 12 11 11 11 10 9 9 9 8 8 9 9 9 9 9 9 9 9 9 9
6 7 7 8 9 10 11 12 12 12 12 11 12 12 12 13 14 14 14 13 13 12 12 12 12 12 12 11 11 10 9 9 8 8 8 8 8 8 9 8 8 8 8 9 9
7 7 7 8 9 11 12 13 13 13 13 12 12 12 13 13 14 14 14 13 13 12 12 13 13 13 12 11 11 10 9 8 8 8 8 8 8 8 8 8 8 8 8 9 9
7 7 7 8 9 12 13 14 14 14 14 13 13 12 12 13 14 14 14 13 13 13 13 13 13 12 11 10 9 8 8 7 8 9 9 8 8 7 8 8 8 8 8 8 8
7 8 8 8 9 12 14 14 13 14 14 13 13 12 12 12 13 14 14 14 13 12 12 12 11 11 10 9 8 7 7 7 8 9 8 8 8 8 8 8 8 8 8 8 8
8 8 8 8 9 11 13 13 13 12 12 12 11 11 12 13 13 13 13 13 12 11 11 10 9 9 9 9 8 7 7 6 7 8 8 7 7 8 8 8 8 8 8 8 8
9 9 8 8 8 9 11 12 13 12 11 10 11 11 12 12 12 12 12 12 10 9 9 8 8 8 9 9 8 7 6 6 7 7 7 6 6 7 8 8 8 8 8 8 8
9 9 9 8 8 8 9 12 13 12 10 9 10 10 11 11 11 11 11 11 9 8 7 7 8 8 8 8 7 7 6 6 6 6 6 5 5 6 7 7 8 8 8 8 8
9 9 9 8 7 7 8 11 13 11 8 7 8 10 10 10 10 10 11 10 8 7 7 7 7 8 7 7 7 6 6 6 5 5 5 5 4 5 6 7 7 7 8 8 9
9 8 8 8 7 7 9 11 11 9 6 6 8 9 9 9 8 9 10 10 8 7 6 7 7 7 6 7 7 7 6 6 5 5 4 4 4 5 5 6 6 7 7 8 9
8 8 8 7 7 8 9 10 9 6 4 5 7 7 8 7 7 8 8 8 7 6 6 6 7 7 6 7 7 7 6 5 5 4 3 4 4 5 5 6 6 7 7 8 9
8 8 8 8 8 8 8 8 6 4 5 6 6 7 7 7 7 7 7 7 6 5 5 5 5 6 6 6 6 6 5 4 3 2 2 3 4 4 5 6 6 7 7 8 8
8 8 8 8 8 8 7 5 4 5 6 6 6 7 7 7 7 6 6 6 6 5 5 4 4 5 6 5 5 5 5 3 2 2 2 3 4 4 5 6 6 6 7 8 8
7 7 8 8 8 7 6 5 4 5 6 6 6 6 6 6 6 6 6 6 6 6 5 4 4 4 5 5 5 5 5 4 3 2 2 3 4 4 5 5 6 6 7 7 7
7 7 7 8 7 7 6 5 5 6 6 6 6 6 6 6 6 6 6 6 6 6 6 5 4 4 5 5 5 5 5 4 4 2 2 2 3 4 5 5 6 6 6 7 7
6 6 7 7 7 6 5 5 6 6 6 6 6 6 6 6 5 5 5 6 6 6 6 6 5 4 4 4 4 4 4 4 3 3 2 2 2 3 4 5 6 6 6 7 7
6 6 7 7 6 5 5 6 6 6 6 6 6 6 6 5 5 5 5 5 6 6 6 6 5 4 3 4 4 4 3 3 3 3 3 2 2 3 4 5 6 6 7 7 7
5 6 6 6 5 5 5 5 6 6 6 6 6 6 5 5 5 5 5 5 6 6 6 5 4 3 3 3 4 3 3 3 3 3 3 3 3 3 4 5 5 6 7 7 7
5 5 6 6 5 5 5 5 5 5 5 5 5 5 5 5 5 5 4 5 5 5 5 5 4 3 3 3 3 3 3 3 3 3 3 3 3 3 3 4 5 5 6 6 6
5 5 5 5 5 5 5 4 4 4 5 5 5 5 5 5 5 4 4 4 5 5 4 4 4 3 3 3 3 3 3 2 2 2 3 3 3 3 3 3 4 4 5 5 5
5 5 5 4 4 4 4 3 3 4 5 5 5 5 5 5 5 5 4 4 4 4 4 4 4 4 4 3 3 3 3 2 2 2 2 3 3 3 3 4 4 3 4 4 4
5 5 5 4 4 3 3 3 3 4 5 5 5 5 5 5 5 5 5 5 4 4 4 4 4 4 4 3 3 3 3 2 2 2 2 2 3 3 3 3 3 3 3 4 4